When you browse on this site, cookies collect data to enhance your experience and personalize the content and advertising you see.
Visit our Privacy Policy to learn more. By continuing to use the site, you agree to this use of cookies and data.
  • In United Kingdom
  • List of Countries
  • For 7 days
  • Water Temperature
  • Satellite Maps
  • Weather Map
  • Weather Widgets
  • user-avatar
    Login

    Hourly Weather Muggio

    Today, 25 March, Monday

    Time Temperature Precipitation Wind Pressure Humidity
    00:00 +15°C° 0 mm 1 mps 748 mmHg 48%
    01:00 +15°C° 0 mm 1 mps 747 mmHg 50%
    02:00 +14°C° 0 mm 1 mps 747 mmHg 52%
    03:00 +14°C° 0 mm 1 mps 746 mmHg 55%
    04:00 +13°C° 0 mm 1 mps 746 mmHg 57%
    05:00 +13°C° 0 mm 1 mps 746 mmHg 58%
    06:00 +13°C° 0 mm 1 mps 746 mmHg 60%
    07:00 +13°C° 0 mm 1 mps 746 mmHg 62%
    08:00 +15°C° 0 mm 1 mps 745 mmHg 57%
    09:00 +16°C° 0 mm 1 mps 745 mmHg 51%
    10:00 +19°C° 0 mm 1 mps 744 mmHg 46%
    11:00 +19°C° 0 mm 2 mps 744 mmHg 41%
    12:00 +21°C° 0 mm 2 mps 744 mmHg 36%
    13:00 +23°C° 0 mm 2 mps 743 mmHg 30%
    14:00 +22°C° 0 mm 3 mps 743 mmHg 28%
    15:00 +22°C° 0 mm 3 mps 742 mmHg 26%
    16:00 +22°C° 0 mm 4 mps 742 mmHg 23%
    17:00 +21°C° 0 mm 5 mps 742 mmHg 24%
    18:00 +19°C° 0 mm 6 mps 742 mmHg 24%
    19:00 +16°C° 0 mm 7 mps 743 mmHg 25%
    20:00 +15°C° 0 mm 7 mps 744 mmHg 25%
    21:00 +12°C° 0 mm 8 mps 745 mmHg 24%
    22:00 +11°C° 0 mm 8 mps 745 mmHg 24%
    23:00 +11°C° 0 mm 7 mps 746 mmHg 25%

    Tomorrow, 26 March, Tuesday

    Time Temperature Precipitation Wind Pressure Humidity
    00:00 +10°C° 0 mm 5 mps 747 mmHg 25%
    01:00 +11°C° 0 mm 4 mps 748 mmHg 26%
    02:00 +10°C° 0.3 mm 4 mps 749 mmHg 36%
    03:00 +8°C° 0.3 mm 4 mps 749 mmHg 47%
    04:00 +8°C° 0.3 mm 4 mps 750 mmHg 57%
    05:00 +8°C° 0.4 mm 3 mps 751 mmHg 60%
    06:00 +8°C° 0.4 mm 2 mps 751 mmHg 63%
    07:00 +8°C° 0.4 mm 1 mps 752 mmHg 67%
    08:00 +10°C° 0.1 mm 1 mps 752 mmHg 58%
    09:00 +11°C° 0.1 mm 1 mps 752 mmHg 49%
    10:00 +12°C° 0.1 mm 2 mps 752 mmHg 40%
    11:00 +14°C° 0 mm 1 mps 751 mmHg 33%
    12:00 +15°C° 0 mm 1 mps 751 mmHg 26%
    13:00 +18°C° 0 mm 1 mps 751 mmHg 19%
    14:00 +18°C° 0 mm 1 mps 750 mmHg 18%
    15:00 +18°C° 0 mm 1 mps 750 mmHg 18%
    16:00 +18°C° 0 mm 1 mps 750 mmHg 18%
    17:00 +16°C° 0 mm 1 mps 751 mmHg 21%
    18:00 +15°C° 0 mm 1 mps 751 mmHg 25%
    19:00 +14°C° 0 mm 1 mps 752 mmHg 28%
    20:00 +13°C° 0 mm 1 mps 752 mmHg 32%
    21:00 +12°C° 0 mm 1 mps 753 mmHg 35%
    22:00 +10°C° 0 mm 0 mps 754 mmHg 38%
    23:00 +11°C° 0 mm 1 mps 754 mmHg 39%

    Day after tomorrow, 27 March, Wednesday

    Time Temperature Precipitation Wind Pressure Humidity
    00:00 +10°C° 0 mm 1 mps 754 mmHg 40%
    01:00 +10°C° 0 mm 1 mps 754 mmHg 41%
    02:00 +9°C° 0 mm 1 mps 754 mmHg 41%
    03:00 +9°C° 0 mm 1 mps 754 mmHg 41%
    04:00 +8°C° 0 mm 1 mps 754 mmHg 41%
    05:00 +8°C° 0 mm 1 mps 754 mmHg 42%
    06:00 +8°C° 0 mm 1 mps 754 mmHg 42%
    07:00 +8°C° 0 mm 1 mps 754 mmHg 43%
    08:00 +9°C° 0 mm 1 mps 754 mmHg 41%
    09:00 +11°C° 0 mm 1 mps 753 mmHg 39%
    10:00 +12°C° 0 mm 1 mps 753 mmHg 37%
    11:00 +13°C° 0 mm 2 mps 753 mmHg 38%
    12:00 +13°C° 0 mm 2 mps 753 mmHg 38%
    13:00 +14°C° 0 mm 2 mps 753 mmHg 38%
    14:00 +14°C° 0 mm 2 mps 752 mmHg 39%
    15:00 +14°C° 0 mm 2 mps 752 mmHg 40%
    16:00 +14°C° 0 mm 2 mps 752 mmHg 40%
    17:00 +14°C° 0 mm 2 mps 752 mmHg 44%
    18:00 +13°C° 0 mm 2 mps 753 mmHg 48%
    19:00 +12°C° 0 mm 2 mps 754 mmHg 52%
    20:00 +11°C° 0 mm 1 mps 754 mmHg 54%
    21:00 +11°C° 0 mm 1 mps 755 mmHg 57%
    22:00 +10°C° 0 mm 1 mps 756 mmHg 59%
    23:00 +10°C° 0 mm 1 mps 756 mmHg 61%

    28 March, Thursday

    Time Temperature Precipitation Wind Pressure Humidity
    00:00 +10°C° 0 mm 1 mps 756 mmHg 62%
    01:00 +9°C° 0 mm 1 mps 756 mmHg 63%
    02:00 +9°C° 0 mm 1 mps 756 mmHg 64%
    03:00 +9°C° 0 mm 1 mps 756 mmHg 64%
    04:00 +7°C° 0 mm 0 mps 756 mmHg 64%
    05:00 +7°C° 0 mm 0 mps 756 mmHg 64%
    06:00 +7°C° 0 mm 0 mps 756 mmHg 63%
    07:00 +7°C° 0 mm 0 mps 756 mmHg 63%
    08:00 +10°C° 0 mm 1 mps 756 mmHg 58%
    09:00 +11°C° 0 mm 1 mps 756 mmHg 54%
    10:00 +13°C° 0 mm 1 mps 756 mmHg 49%
    11:00 +14°C° 0 mm 1 mps 755 mmHg 46%
    12:00 +15°C° 0 mm 1 mps 755 mmHg 43%
    13:00 +16°C° 0 mm 1 mps 755 mmHg 41%
    14:00 +16°C° 0 mm 1 mps 755 mmHg 40%
    15:00 +16°C° 0 mm 2 mps 754 mmHg 40%
    16:00 +16°C° 0 mm 2 mps 754 mmHg 40%
    17:00 +15°C° 0 mm 1 mps 755 mmHg 43%
    18:00 +14°C° 0 mm 1 mps 755 mmHg 47%
    19:00 +13°C° 0 mm 1 mps 755 mmHg 50%
    20:00 +13°C° 0 mm 1 mps 756 mmHg 53%
    21:00 +11°C° 0 mm 0 mps 756 mmHg 55%
    22:00 +11°C° 0 mm 0 mps 757 mmHg 57%
    23:00 +10°C° 0 mm 0 mps 757 mmHg 58%

    29 March, Friday

    Time Temperature Precipitation Wind Pressure Humidity
    00:00 +11°C° 0 mm 1 mps 757 mmHg 60%
    01:00 +11°C° 0 mm 1 mps 757 mmHg 61%
    02:00 +11°C° 0 mm 1 mps 757 mmHg 61%
    03:00 +10°C° 0 mm 0 mps 757 mmHg 61%
    04:00 +10°C° 0 mm 0 mps 757 mmHg 60%
    05:00 +10°C° 0 mm 0 mps 757 mmHg 60%
    06:00 +10°C° 0 mm 0 mps 758 mmHg 61%
    07:00 +10°C° 0 mm 0 mps 758 mmHg 61%
    08:00 +12°C° 0 mm 1 mps 758 mmHg 57%
    09:00 +13°C° 0 mm 1 mps 757 mmHg 53%
    10:00 +14°C° 0 mm 1 mps 757 mmHg 49%
    11:00 +15°C° 0 mm 1 mps 757 mmHg 46%
    12:00 +16°C° 0 mm 2 mps 757 mmHg 43%
    13:00 +17°C° 0 mm 2 mps 756 mmHg 41%
    14:00 +18°C° 0 mm 1 mps 756 mmHg 40%
    15:00 +18°C° 0 mm 1 mps 756 mmHg 40%
    16:00 +19°C° 0 mm 1 mps 755 mmHg 40%
    17:00 +16°C° 0 mm 1 mps 756 mmHg 44%
    18:00 +15°C° 0 mm 1 mps 756 mmHg 49%
    19:00 +14°C° 0 mm 1 mps 756 mmHg 53%
    20:00 +14°C° 0 mm 1 mps 757 mmHg 56%
    21:00 +13°C° 0 mm 1 mps 757 mmHg 59%
    22:00 +11°C° 0 mm 0 mps 758 mmHg 62%
    23:00 +11°C° 0 mm 0 mps 758 mmHg 63%

    30 March, Saturday

    Time Temperature Precipitation Wind Pressure Humidity
    00:00 +10°C° 0 mm 0 mps 758 mmHg 64%
    01:00 +10°C° 0 mm 0 mps 757 mmHg 65%
    02:00 +11°C° 0 mm 1 mps 757 mmHg 66%
    03:00 +10°C° 0 mm 1 mps 757 mmHg 67%
    04:00 +10°C° 0 mm 1 mps 757 mmHg 67%
    05:00 +10°C° 0 mm 1 mps 757 mmHg 67%
    06:00 +10°C° 0 mm 1 mps 757 mmHg 67%
    07:00 +10°C° 0 mm 1 mps 757 mmHg 67%
    08:00 +12°C° 0 mm 1 mps 756 mmHg 61%
    09:00 +13°C° 0 mm 1 mps 755 mmHg 54%
    10:00 +15°C° 0 mm 1 mps 755 mmHg 48%
    11:00 +16°C° 0 mm 1 mps 754 mmHg 44%
    12:00 +19°C° 0 mm 1 mps 754 mmHg 39%
    13:00 +20°C° 0 mm 1 mps 753 mmHg 35%
    14:00 +20°C° 0 mm 1 mps 753 mmHg 33%
    15:00 +20°C° 0 mm 1 mps 752 mmHg 31%
    16:00 +21°C° 0 mm 1 mps 752 mmHg 29%
    17:00 +19°C° 0 mm 1 mps 752 mmHg 33%
    18:00 +18°C° 0 mm 1 mps 752 mmHg 36%
    19:00 +16°C° 0 mm 1 mps 752 mmHg 39%
    20:00 +15°C° 0 mm 1 mps 752 mmHg 43%
    21:00 +14°C° 0 mm 1 mps 752 mmHg 46%
    22:00 +12°C° 0 mm 0 mps 752 mmHg 49%
    23:00 +12°C° 0 mm 0 mps 752 mmHg 51%
    Show more